{"data":{"norad_id":68497,"intl_designator":"2026-067CK","name":"ICEYE-X75","alt_names":[],"object_type":"PAYLOAD","status":"ACTIVE","operator":null,"country":"POL","launch_date":"2026-03-30","launch_site_code":"AFWTR","launch_vehicle":null,"mission":null,"orbit_class":"UNKNOWN","rcs_meters":null,"size_class":null,"mass_kg":null,"dimensions":null,"purposes":[],"wikipedia_slug":null,"has_3d_model":false,"image_url":null,"decayed_at":null,"tle_current":{"epoch":"2026-09-20T02:53:18.449088Z","epoch_age_seconds":101785,"freshness":"FRESH","line1":"1 68497U 26067CK  26263.12035242  .00000594  00000+0  63695-4 0  9993","line2":"2 68497  97.7700 220.0322 0002107  39.9587 320.1787 14.92287116 25880","mean_motion":14.92287116,"eccentricity":0.0002107,"inclination_deg":97.77,"raan_deg":220.0322,"arg_perigee_deg":39.9587,"mean_anomaly_deg":320.1787,"bstar":6.3695e-5,"rev_number":2588,"period_min":96.496175873973,"perigee_km":589.33768646151,"apogee_km":592.27439905973,"semimajor_km":6968.9430427606,"source":"CELESTRAK","updated_at":"2026-09-20T09:00:24.259357Z"}}}